Regional Weather Roundup
Issued by NWS

Home | Current Version | Previous Version | Text Only | Print | Product List | Glossary Off
Versions: 1 2 3 4 5 6 7 8 9 10 11 12 13 14 15 16 17 18 19 20 21 22 23 24 25 26 27 28 29 30 31 32 33 34 35 36 37 38 39 40 41 42 43 44 45 46 47 48 49 50

930
ASUS45 KCYS 230810
RWRWY

WYOMING REGIONAL WEATHER ROUNDUP
NATIONAL WEATHER SERVICE CHEYENNE WY
100 AM MST MON JAN 23 2017

NOTE:  "FAIR" INDICATES FEW OR NO CLOUDS BELOW 12,000 FEET
WITH NO SIGNIFICANT WEATHER AND/OR OBSTRUCTIONS TO VISIBILITY.

WYZ001-230900-
YELLOWSTONE NATIONAL PARK

CITY           SKY/WX    TMP DP  RH WIND       PRES   REMARKS
LK YELLOWSTONE   N/A     15  14  95 CALM      29.65F
W YELLOWSTONE  NOT AVBL

$$
WYZ002>013-054>058-071-098>099-230900-
NORTHERN WYOMING

CITY           SKY/WX    TMP DP  RH WIND       PRES   REMARKS
JACKSON        CLOUDY    21  19  93 S7        29.67F WCI  13
CODY           FAIR      18  14  84 W6        29.62F WCI  10
GREYBULL       FAIR      14  10  84 NW7       29.64F WCI   4
WORLAND        CLOUDY    29  27  92 S3        29.63F
SHERIDAN       FAIR      21  16  81 SW6       29.63F WCI  13
BUFFALO        CLOUDY    26  15  63 W3        29.61F
GILLETTE       FAIR      26  20  77 S10       29.62F WCI  16
HULETT         FAIR      27  19  74 CALM      29.67F
NEWCASTLE      FAIR      25  16  68 E8        29.71F WCI  16

$$
WYZ014>020-022>026-101>103-230900-
CENTRAL WYOMING

CITY           SKY/WX    TMP DP  RH WIND       PRES   REMARKS
BIG PINEY      LGT SNOW  16  14  92 CALM      29.69F FOG
PINEDALE       LGT SNOW  18  18 100 NW6       29.69S WCI   9
DUBOIS         NOT AVBL
LANDER         FAIR      18  12  77 W6        29.62F WCI  10
RIVERTON       FAIR      17  14  88 N5        29.63F WCI  10
CASPER         LGT SNOW  29  27  92 SW21G29   29.64F FOG     WCI  16
DOUGLAS        FAIR      30  16  56 E3        29.67F

$$
WYZ021-027>030-104>119-230900-
SOUTHERN WYOMING

CITY           SKY/WX    TMP DP  RH WIND       PRES   REMARKS
EVANSTON       LGT SNOW  20  16  84 E10       29.63F VSB 3/4 WCI   9
ROCK SPRINGS   LGT SNOW  25  22  88 S15       29.67F VSB 1   WCI  13
RAWLINS        CLOUDY    27  20  75 SW23G30   29.67F WCI  12
LARAMIE        CLOUDY    24  14  65 E7        29.69F WCI  16
CHEYENNE       CLOUDY    29  12  49 S5        29.71F WCI  24
TORRINGTON     CLOUDY    28  17  63 SE6       29.75F WCI  22

$$




USA.gov is the U.S. government's official web portal to all federal, state and local government web resources and services.